フィエチジョシュ彗星

P/2022 B1 ( Wierzchos )

English version
Home page
Updated on May 29, 2022

---------------------------------------------------------------------

・ プロフィール

発見日 2022年1月25日
発見光度 19.8等
発見者 K. W. Wierzchos (Mt. Lemmon)

・ 軌道要素

Epoch 2022 Jan. 21.0 TT = JDT 2459600.5
T 2022 Feb. 25.33902 TT                                 Rudenko
q   1.8967083            (2000.0)            P               Q
n   0.07718070     Peri.  325.48155     -0.41739224     -0.90335907
a   5.4634071      Node   148.84996     +0.87080178     -0.42863577
e   0.6528342      Incl.   10.99088     +0.25978447     -0.01462089
P  12.8
From 76 observations 2021 Oct. 30-2022 Feb. 9, mean residual 0".5.

・ 光度変化

        m1 = 16.5 + 5 logΔ + 10.0 log r

---------------------------------------------------------------------

軌道要素はM.P.E.C. 2022-K19に掲載されたものです。
光度グラフはComet for Windowsで作成したものです。

---------------------------------------------------------------------

Copyright(C) Seiichi Yoshida (comet@aerith.net). All rights reserved.